View from above orbital plane
|
View from above satellite
|
Ground track
|
The orbit data is extracted from the following two-line orbital elements,
1 39026U 12072A 21016.14775847 .00001376 00000-0 49935-4 0 9996
2 39026 97.2352 12.8939 0035546 204.6558 155.2985 15.29452200449805
Epoch (UTC): | 16 January 2021 03:32:46 |
Eccentricity: | 0.0035546 |
inclination: | 97.2352° |
perigee height: | 453 km |
apogee height: | 502 km |
right ascension of ascending node: | 12.8939° |
argument of perigee: | 204.6558° |
revolutions per day: | 15.29452200 |
mean anomaly at epoch: | 155.2985° |
orbit number at epoch: | 44980 |
The dashed part of the orbit path shows where the satellite is in the earth's shadow,
|
|